DL1NER Weather Reports


Display with metric or nautical units.
time (UTC)temp
F
wind
direction
speed
MPH
gust
MPH
rain 1hr
in
rain 24hr
in
rain mn
in
humidity
%
barometer
mb
20260510023011 46 36 0.0 0.0 0.00 0.00 0.00 83 1014.0
20260510022011 46 36 0.0 0.0 0.00 0.00 0.00 83 1014.1
20260510021011 47 36 0.0 0.0 0.00 0.00 0.00 83 1014.0
20260510020011 47 36 0.0 0.0 0.00 0.00 0.00 83 1014.1
20260510015011 47 36 0.0 0.0 0.00 0.00 0.00 83 1014.1
20260510014011 47 36 0.0 0.0 0.00 0.00 0.00 83 1014.1
20260510013011 48 36 0.0 2.0 0.00 0.00 0.00 82 1014.3
20260510012011 48 36 0.0 2.0 0.00 0.00 0.00 80 1014.3
20260510011011 48 36 0.0 1.0 0.00 0.00 0.00 79 1014.3
20260510010011 48 36 0.0 0.0 0.00 0.00 0.00 79 1014.3
20260510005011 49 36 0.0 2.0 0.00 0.00 0.00 79 1014.4
20260510004011 49 36 1.0 2.0 0.00 0.00 0.00 78 1014.5
20260510003011 49 36 0.0 3.0 0.00 0.00 0.00 78 1014.6
20260510002011 49 38 0.0 0.0 0.00 0.00 0.00 77 1014.7
20260510000011 50 38 0.0 0.0 0.00 0.00 0.00 74 1014.9
20260509235010 50 38 0.0 0.0 0.00 0.00 0.00 73 1014.9
20260509234011 50 38 0.0 0.0 0.00 0.00 0.00 73 1014.9
20260509233011 51 38 0.0 0.0 0.00 0.00 0.00 73 1014.9
20260509232010 51 38 0.0 0.0 0.00 0.00 0.00 72 1015.3
20260509231010 51 38 0.0 0.0 0.00 0.00 0.00 72 1015.5
20260509230010 52 38 0.0 0.0 0.00 0.00 0.00 72 1015.6
20260509225010 52 38 0.0 0.0 0.00 0.00 0.00 71 1015.7
20260509224010 52 38 0.0 0.0 0.00 0.00 0.00 71 1015.7
20260509223010 53 38 0.0 0.0 0.00 0.00 0.00 70 1015.6
20260509222010 53 38 0.0 2.0 0.00 0.00 0.00 70 1015.6
20260509221010 54 38 1.0 2.0 0.00 0.00 0.00 69 1015.5
20260509220010 54 38 0.0 2.0 0.00 0.00 0.00 69 1015.4
20260509215011 55 38 0.0 2.0 0.00 0.00 0.00 67 1015.3
20260509214010 56 38 0.0 0.0 0.00 0.00 0.00 66 1015.4
20260509213011 56 38 0.0 1.0 0.00 0.00 0.00 66 1015.4
20260509212011 57 38 0.0 0.0 0.00 0.00 0.00 64 1015.3
20260509211010 57 38 0.0 0.0 0.00 0.00 0.00 63 1015.4
20260509210011 58 38 0.0 0.0 0.00 0.00 0.00 61 1015.5
20260509201011 61 31 0.0 3.0 0.00 0.00 0.00 57 1015.7
20260509200010 61 31 1.0 3.0 0.00 0.00 0.00 56 1015.7
20260509195009 62 31 1.0 3.0 0.00 0.00 0.00 55 1015.5
20260509194011 62 31 1.0 3.0 0.00 0.00 0.00 54 1015.6
20260509193009 64 31 1.0 3.0 0.00 0.00 0.00 53 1015.4
20260509192010 64 31 1.0 3.0 0.00 0.00 0.00 53 1015.4
20260509191009 65 31 3.0 6.0 0.00 0.00 0.00 52 1015.2
20260509190009 65 31 3.0 6.0 0.00 0.00 0.00 52 1015.2
20260509185009 66 47 3.0 5.0 0.00 0.00 0.00 52 1015.2
20260509184009 67 29 2.0 4.0 0.00 0.00 0.00 52 1015.2
20260509183009 67 27 2.0 8.0 0.00 0.00 0.00 51 1015.2
20260509181010 67 24 2.0 5.0 0.00 0.00 0.00 50 1015.2
20260509180009 68 345 2.0 5.0 0.00 0.00 0.00 50 1015.1
20260509175009 69 316 3.0 7.0 0.00 0.00 0.00 49 1015.0
20260509174016 69 316 3.0 7.0 0.00 0.00 0.00 49 1015.0
20260509173009 69 67 2.0 5.0 0.00 0.00 0.00 47 1015.0
20260509172014 69 67 2.0 5.0 0.00 0.00 0.00 47 1015.0
20260509171013 69 74 2.0 4.0 0.00 0.00 0.00 46 1015.1
20260509170013 70 78 3.0 6.0 0.00 0.00 0.00 48 1015.0
20260509165013 70 17 3.0 7.0 0.00 0.00 0.00 46 1015.0
20260509164013 70 82 4.0 7.0 0.00 0.00 0.00 48 1015.0
20260509162013 71 83 4.0 9.0 0.00 0.00 0.00 46 1015.3
20260509160013 71 20 1.0 5.0 0.00 0.00 0.00 46 1015.5
20260509154013 71 90 2.0 5.0 0.00 0.00 0.00 45 1015.5
20260509153013 72 348 3.0 7.0 0.00 0.00 0.00 43 1015.6
20260509152013 72 33 4.0 10.0 0.00 0.00 0.00 43 1015.7
20260509151013 73 38 3.0 10.0 0.00 0.00 0.00 44 1015.7
20260509150013 73 343 2.0 7.0 0.00 0.00 0.00 43 1015.9
20260509144014 72 78 4.0 8.0 0.00 0.00 0.00 47 1016.1
20260509143012 71 5 3.0 8.0 0.00 0.00 0.00 47 1016.2
20260509142013 70 350 3.0 6.0 0.00 0.00 0.00 46 1016.3
20260509141013 70 355 3.0 6.0 0.00 0.00 0.00 47 1016.5
20260509140012 71 86 2.0 6.0 0.00 0.00 0.00 45 1016.6
20260509135012 73 75 2.0 7.0 0.00 0.00 0.00 43 1016.8
20260509134012 72 119 2.0 6.0 0.00 0.00 0.00 43 1016.8
20260509133012 72 118 2.0 8.0 0.00 0.00 0.00 46 1016.9
20260509132012 72 114 3.0 9.0 0.00 0.00 0.00 46 1017.0
20260509131013 72 83 3.0 9.0 0.00 0.00 0.00 45 1017.1
20260509130012 71 80 2.0 7.0 0.00 0.00 0.00 49 1017.3
20260509125012 72 96 2.0 7.0 0.00 0.00 0.00 45 1017.4
20260509123012 70 176 2.0 7.0 0.00 0.00 0.00 50 1017.6
20260509122012 70 96 1.0 3.0 0.00 0.00 0.00 50 1017.7
20260509121012 70 24 2.0 4.0 0.00 0.00 0.00 51 1017.7
20260509120012 70 47 1.0 5.0 0.00 0.00 0.00 50 1017.8
20260509115012 69 344 2.0 5.0 0.00 0.00 0.00 50 1017.8
20260509114012 69 109 2.0 4.0 0.00 0.00 0.00 49 1017.9
20260509113012 69 40 2.0 6.0 0.00 0.00 0.00 49 1018.0
20260509112012 69 138 2.0 5.0 0.00 0.00 0.00 49 1018.1
20260509110012 67 80 2.0 7.0 0.00 0.00 0.00 52 1018.5
20260509105012 66 102 3.0 10.0 0.00 0.00 0.00 51 1018.5
20260509104012 66 45 1.0 7.0 0.00 0.00 0.00 52 1018.6
20260509103011 66 98 3.0 7.0 0.00 0.00 0.00 52 1018.7
20260509102011 67 39 2.0 8.0 0.00 0.00 0.00 51 1018.7
20260509101011 66 96 2.0 5.0 0.00 0.00 0.00 51 1018.8
20260509100012 65 44 3.0 7.0 0.00 0.00 0.00 52 1018.7
20260509094011 64 86 2.0 7.0 0.00 0.00 0.00 58 1018.9
20260509092012 64 85 3.0 5.0 0.00 0.00 0.00 62 1019.0
20260509091011 63 153 1.0 5.0 0.00 0.00 0.00 66 1019.2
20260509090012 62 157 2.0 6.0 0.00 0.00 0.00 68 1019.3
20260509085011 61 116 1.0 4.0 0.00 0.00 0.00 69 1019.3
20260509084012 60 117 3.0 6.0 0.00 0.00 0.00 70 1019.4
20260509083012 59 121 2.0 8.0 0.00 0.00 0.00 73 1019.4
20260509082011 58 92 2.0 7.0 0.00 0.00 0.00 74 1019.5
20260509075011 56 92 3.0 7.0 0.00 0.00 0.00 77 1019.6
20260509073011 54 109 2.0 6.0 0.00 0.00 0.00 81 1019.6
20260509072011 53 86 2.0 5.0 0.00 0.00 0.00 82 1019.5
20260509071010 52 88 3.0 7.0 0.00 0.00 0.00 83 1019.6
20260509070011 51 79 3.0 8.0 0.00 0.00 0.00 85 1019.8
20260509065010 51 63 2.0 6.0 0.00 0.00 0.00 87 1019.7
20260509064010 49 84 2.0 4.0 0.00 0.00 0.00 89 1019.7
20260509063010 49 89 0.0 3.0 0.00 0.00 0.00 90 1019.7
20260509061011 47 89 1.0 2.0 0.00 0.00 0.00 91 1019.8
20260509060010 47 89 1.0 3.0 0.00 0.00 0.00 92 1019.7
20260509055010 46 89 0.0 1.0 0.00 0.00 0.00 92 1019.6
20260509054010 46 89 0.0 2.0 0.00 0.00 0.00 92 1019.7
20260509053010 45 89 0.0 0.0 0.00 0.00 0.00 92 1019.5
20260509052010 44 89 1.0 3.0 0.00 0.00 0.00 92 1019.3
20260509050010 43 90 0.0 0.0 0.00 0.00 0.00 92 1019.2
20260509045010 42 90 0.0 0.0 0.00 0.00 0.00 92 1019.2
20260509044010 42 90 0.0 0.0 0.00 0.00 0.00 92 1019.1
20260509043010 42 90 0.0 0.0 0.00 0.00 0.00 91 1018.9
20260509041010 42 90 0.0 0.0 0.00 0.00 0.00 91 1018.8
20260509040010 42 90 0.0 0.0 0.00 0.00 0.00 91 1018.9
20260509035010 42 90 0.0 3.0 0.00 0.00 0.00 91 1019.1
20260509033010 42 88 1.0 2.0 0.00 0.00 0.00 91 1019.0
20260509032010 42 88 1.0 2.0 0.00 0.00 0.00 90 1018.9
20260509031009 42 88 0.0 1.0 0.00 0.00 0.00 90 1018.8
20260509030010 42 88 0.0 1.0 0.00 0.00 0.00 90 1018.8
20260509025009 42 88 0.0 1.0 0.00 0.00 0.00 90 1018.8
20260509024010 42 88 0.0 1.0 0.00 0.00 0.00 90 1018.8